Wind_Speed
44 43 42 40 39 37 36 35 33 31 30 29 28 28 27 27 27 26 26 25 24 24 23 23 22 22 21 21 20 19 19 20 20 19 19 19 19 19 19 18 18 18 17 17 16 16 16 15 15 14 14 13 13 12 12 11 10 10 9 8 8 8 8 9 9 10 10 9 9 9 9 9 10 10 10 10 10 11 12 11 10 10 10 10 10 9 8 8
45 44 43 42 40 39 38 36 34 33 31 30 29 29 28 28 28 27 26 26 25 24 24 23 23 22 22 21 21 21 21 21 21 20 20 20 20 20 19 19 18 18 17 17 17 16 16 15 15 15 14 14 13 13 12 11 11 10 10 9 9 9 9 10 10 11 11 10 10 10 10 10 11 11 11 11 11 12 13 12 11 11 10 10 10 10 10 9
46 45 44 43 42 41 39 37 35 34 33 31 31 30 29 29 28 28 28 27 26 25 24 24 23 23 23 22 22 22 22 22 22 21 21 20 20 20 20 19 19 18 18 17 17 16 16 16 16 16 15 14 14 13 13 12 12 11 11 10 10 10 10 10 11 12 12 11 11 11 11 11 11 12 12 12 12 13 13 13 12 11 11 10 10 11 12 11
47 46 45 44 43 42 40 38 37 35 34 33 32 32 31 30 30 29 29 28 26 26 25 24 24 24 24 23 23 23 23 23 22 22 21 21 21 21 20 20 19 19 18 18 18 17 17 17 16 16 15 14 14 14 13 13 13 12 12 11 11 10 10 11 12 12 12 12 11 11 12 12 12 12 13 13 13 13 13 13 12 11 11 11 10 11 13 13
48 47 46 45 44 42 41 39 38 37 36 35 34 33 33 32 31 31 30 29 28 27 26 25 25 25 25 24 24 23 23 24 23 22 22 22 21 21 20 20 20 19 19 18 18 18 17 17 16 16 15 15 15 14 14 14 13 13 13 12 12 11 11 12 12 13 12 12 12 12 12 13 13 13 13 13 14 13 13 13 13 12 12 11 11 11 13 14
50 49 48 47 45 44 42 41 39 38 37 36 35 35 34 34 33 32 32 30 29 28 27 26 26 26 26 26 25 24 25 25 23 23 23 22 22 21 21 20 20 20 19 19 18 18 17 17 16 16 15 15 15 15 14 15 14 14 13 13 13 13 12 12 13 13 12 12 12 12 12 13 13 13 13 13 14 14 13 13 13 12 12 12 12 12 13 14
52 51 49 48 47 45 44 43 41 40 39 38 37 36 36 35 35 34 33 32 31 29 28 28 28 28 27 27 26 26 25 25 24 24 23 23 22 22 22 21 21 21 20 20 19 18 18 17 16 16 16 15 15 15 15 15 15 14 14 14 14 14 13 13 13 12 12 12 12 13 12 12 13 13 13 14 15 15 14 13 12 13 13 13 12 12 13 15
52 52 51 50 49 47 46 44 43 42 41 40 39 38 37 37 36 36 35 34 32 31 30 29 29 29 29 28 27 27 26 25 25 25 24 24 23 23 23 22 22 22 21 20 20 19 18 18 17 17 16 16 15 15 15 16 15 15 15 15 14 15 14 13 13 12 13 13 13 13 12 13 13 13 14 14 15 15 15 14 13 13 14 14 14 14 14 15
52 52 51 51 50 49 47 46 45 44 43 42 41 40 39 39 38 38 37 36 34 33 31 31 31 30 30 29 29 28 27 26 26 26 25 24 24 24 24 23 23 22 22 21 20 20 19 18 18 18 17 16 16 16 16 16 16 16 15 15 15 15 15 14 13 12 13 13 13 14 13 13 14 14 15 15 14 15 15 15 14 14 14 15 15 15 15 16
50 51 51 51 50 50 49 48 46 45 44 43 42 41 41 40 40 40 39 38 36 35 33 32 32 32 31 31 30 30 28 27 27 27 26 25 24 24 24 24 24 23 23 22 21 20 20 19 19 18 17 17 16 16 16 16 15 15 15 15 15 15 15 15 14 13 13 13 14 14 13 13 14 16 17 15 15 15 15 15 15 15 15 15 16 17 17 17
49 50 50 50 50 50 49 49 48 47 45 44 43 42 42 42 41 41 40 39 38 37 35 34 34 33 33 32 32 31 30 29 29 28 27 26 25 25 25 24 24 24 23 23 22 21 21 20 20 19 18 17 17 16 15 15 15 15 15 15 14 15 15 15 14 13 13 14 14 15 13 14 15 17 17 16 15 16 16 16 16 16 16 16 17 17 18 18
47 49 50 50 50 49 49 49 49 48 47 46 45 44 43 43 43 42 42 41 40 39 37 36 35 35 35 34 34 33 32 31 31 29 29 28 27 26 26 26 25 25 25 24 23 22 22 21 21 19 19 18 17 16 15 15 15 15 15 14 14 15 15 15 14 13 14 14 15 16 13 14 17 16 17 17 17 17 17 17 17 17 18 18 18 18 19 19
44 46 48 49 49 49 49 48 48 48 47 46 46 45 44 44 44 44 43 43 42 41 39 38 37 37 37 36 36 35 34 33 32 31 31 30 29 28 27 27 27 27 26 25 25 24 23 22 21 20 20 19 18 17 16 16 15 15 15 15 15 15 14 15 15 13 14 15 16 17 13 14 18 17 17 18 18 18 19 19 19 19 19 19 20 20 20 20
42 43 45 47 48 48 48 48 48 47 47 46 46 45 45 45 45 45 45 44 44 43 41 40 39 38 38 38 38 37 36 35 34 33 32 31 31 30 29 29 29 28 28 27 26 25 25 24 23 22 21 20 19 18 18 17 17 17 16 16 16 15 14 15 15 15 16 16 17 18 14 14 19 19 19 20 19 20 20 20 20 20 20 20 21 21 22 22
40 41 42 43 45 47 48 48 48 47 47 46 45 45 45 45 46 46 46 46 45 45 43 42 41 40 40 40 40 39 38 36 36 35 34 33 33 32 32 31 31 30 30 29 28 27 26 25 24 23 23 22 21 20 20 19 19 19 18 18 17 16 16 16 16 16 18 18 19 19 16 14 18 21 21 21 21 21 21 21 22 21 21 21 21 22 23 23
40 40 41 41 42 44 46 47 48 48 47 46 46 45 45 45 45 46 47 47 47 46 45 44 43 42 41 41 41 41 40 39 37 36 36 35 35 34 34 33 33 32 32 31 30 29 28 27 26 25 24 24 23 22 22 22 21 22 21 19 18 18 18 18 18 19 20 21 20 21 18 15 18 21 22 22 22 22 22 22 22 22 22 22 23 23 24 25
41 41 40 41 41 42 43 45 46 47 48 47 47 46 45 45 45 46 47 47 48 48 47 46 45 44 43 42 42 42 42 40 39 38 38 37 37 36 36 35 35 34 33 32 31 31 30 29 28 27 26 25 25 25 26 24 24 24 22 20 20 21 20 20 21 22 23 23 23 23 20 17 19 21 22 23 23 22 22 22 22 23 23 24 24 24 24 25
41 41 41 41 41 41 41 42 44 45 47 48 48 47 47 46 45 45 46 47 48 49 48 48 47 46 45 43 43 44 43 42 41 40 40 39 39 38 37 37 37 36 35 34 33 32 31 30 29 28 27 26 28 29 28 26 25 25 24 23 23 23 23 22 23 25 26 26 26 25 23 20 20 21 23 24 23 23 23 23 23 24 24 24 25 25 25 25
44 42 42 42 41 41 41 41 42 43 45 46 47 48 48 48 47 46 46 47 48 49 49 49 48 47 46 45 44 45 45 44 43 42 42 41 40 40 39 39 38 38 37 36 35 34 33 32 31 29 28 29 30 30 28 27 27 26 26 26 25 25 24 24 26 28 28 29 28 28 27 23 21 21 23 25 24 23 24 24 24 24 24 25 26 25 25 25
47 45 43 42 42 42 41 41 42 42 44 45 46 47 49 49 49 48 48 47 48 49 49 50 49 48 48 46 45 46 46 46 45 44 44 43 42 42 42 41 40 39 38 37 36 35 35 34 32 30 30 32 32 30 28 28 28 28 28 28 27 26 26 26 28 29 30 32 30 30 30 27 23 21 23 25 25 25 25 26 25 25 25 25 26 26 26 26
45 47 46 44 43 42 42 42 42 42 43 44 45 46 47 48 49 50 50 50 49 50 50 50 50 49 49 48 47 47 47 47 47 46 46 45 44 44 43 43 42 41 39 39 38 38 37 35 32 31 33 33 32 30 30 30 30 30 30 29 29 28 27 28 30 31 32 34 32 32 33 30 26 24 23 24 25 25 26 27 26 25 26 26 26 26 27 27
44 43 45 46 45 43 42 42 42 42 42 43 44 45 46 47 48 50 51 52 52 52 51 51 51 50 50 49 49 48 48 48 48 48 48 47 46 45 45 44 43 43 42 42 41 40 38 36 33 34 35 34 33 32 31 31 31 31 31 31 31 30 30 30 31 33 34 35 35 34 35 33 29 26 25 25 25 25 26 27 26 27 27 27 28 28 28 29
47 44 43 43 44 45 45 43 42 43 43 43 43 44 45 46 47 49 51 52 53 54 54 53 52 52 51 51 50 50 49 50 50 50 50 49 49 48 47 46 46 45 44 44 43 41 40 37 36 36 36 35 34 33 33 33 32 32 33 32 32 31 32 32 32 34 35 37 37 37 39 36 31 28 27 26 27 26 26 28 27 28 29 29 30 29 29 29
49 48 46 44 43 43 45 46 45 44 44 44 44 45 45 46 47 48 49 52 54 54 55 55 55 54 53 52 52 51 51 51 51 52 52 51 51 50 49 49 48 47 46 46 45 43 42 40 39 37 37 37 35 35 35 35 34 34 34 33 33 33 34 34 34 35 35 37 39 40 43 40 33 30 28 27 29 27 27 29 28 29 30 30 30 30 30 30
51 50 49 48 46 44 43 44 46 47 47 45 46 46 46 46 47 48 49 52 54 53 53 55 56 55 54 54 54 53 53 52 52 53 53 53 53 52 52 51 50 49 48 48 47 45 43 42 40 38 38 37 37 36 36 37 36 35 34 34 34 35 35 35 36 36 37 38 39 41 47 45 36 31 29 29 29 27 27 29 30 31 32 31 30 30 30 31
52 53 51 50 50 48 45 43 44 47 48 49 49 47 47 47 47 49 49 52 55 52 50 53 55 55 55 55 54 54 55 54 52 53 54 54 55 55 54 53 52 51 50 50 50 47 44 43 42 40 39 38 39 39 38 38 38 37 36 35 36 36 36 37 37 38 39 40 40 42 47 49 42 33 30 31 30 28 26 27 31 32 32 32 32 31 32 31
53 52 52 52 51 49 48 47 46 45 46 50 51 50 49 48 49 50 50 53 56 51 48 50 52 53 53 53 54 55 56 54 52 53 54 55 56 56 55 55 53 52 51 51 51 48 46 44 43 42 41 41 41 40 39 39 39 39 37 36 37 37 38 38 38 39 40 41 43 43 47 52 49 37 32 33 31 28 26 27 31 33 32 34 34 34 33 32
54 52 52 52 52 52 50 50 49 48 47 48 49 51 53 52 52 51 51 55 57 52 49 48 49 51 52 52 53 54 56 55 54 54 54 55 56 57 57 56 54 53 52 53 52 50 48 47 45 44 44 44 42 41 41 41 41 40 38 38 38 38 39 39 39 40 41 44 46 44 47 53 53 44 36 33 31 29 28 29 32 33 34 35 35 35 34 32
55 55 53 52 53 53 53 52 51 51 50 48 48 50 52 54 56 54 55 58 56 53 52 49 48 49 51 52 52 52 54 56 56 54 53 55 57 58 57 56 55 54 54 54 53 52 51 50 48 47 46 45 44 43 43 42 41 41 40 41 40 40 40 39 40 41 42 47 46 44 48 53 55 51 39 33 33 32 31 32 33 34 35 36 36 36 34 32
56 56 55 55 55 54 52 52 52 52 52 52 52 51 51 54 55 57 61 61 55 53 54 52 49 49 49 51 51 51 52 54 54 54 53 54 56 57 57 57 56 56 56 56 55 54 53 52 50 49 47 45 44 44 43 42 42 42 42 42 42 41 40 39 40 41 44 50 47 46 51 53 58 56 42 35 36 36 34 35 35 35 35 36 36 35 34 33
59 58 55 54 55 56 55 52 50 51 52 54 55 55 56 56 55 59 61 56 53 57 58 54 51 49 49 49 50 50 51 52 53 53 53 53 54 55 56 56 57 56 57 56 55 54 54 52 51 49 46 45 45 45 44 44 43 43 43 42 42 41 40 40 41 43 48 52 49 49 53 55 60 59 47 40 39 37 37 38 39 38 35 36 35 34 34 34
60 61 59 56 54 54 55 54 52 53 53 53 54 56 59 62 63 63 55 47 51 60 61 57 54 51 50 50 51 51 51 52 53 53 53 52 53 54 54 55 54 54 55 55 54 54 53 52 50 49 48 47 47 47 46 46 44 43 42 40 40 40 41 43 45 48 51 52 50 52 56 59 62 57 50 45 41 40 40 39 42 43 39 35 34 33 33 34
60 60 61 61 59 56 54 54 54 56 55 54 55 55 57 62 65 62 54 50 53 57 57 57 57 55 55 54 53 52 52 52 52 53 53 53 53 53 54 54 54 54 55 54 54 54 54 53 53 52 52 50 48 47 46 45 43 42 40 39 40 41 44 47 49 52 53 51 51 54 58 62 62 56 51 48 44 43 43 41 43 47 43 37 34 34 34 33
60 60 60 61 62 60 58 55 54 56 57 56 58 58 59 61 59 55 54 54 55 54 53 54 56 56 57 57 56 54 53 53 52 53 54 54 54 54 54 54 54 54 54 54 54 54 54 55 53 52 51 49 48 46 45 44 43 43 42 42 43 44 47 50 51 52 53 53 54 57 60 63 60 56 54 51 47 46 46 45 45 47 46 40 34 34 34 33
60 60 60 60 60 60 60 59 57 57 60 60 60 63 64 63 59 56 55 54 53 54 54 56 56 55 56 58 58 58 57 57 55 54 55 55 55 54 53 53 53 53 53 53 54 54 55 55 53 51 51 49 47 46 45 45 45 45 44 45 46 46 47 49 50 52 54 58 59 60 62 61 59 57 57 55 52 50 50 49 48 47 46 42 37 34 34 34
61 61 60 59 59 59 59 60 58 57 59 59 61 65 64 59 57 58 57 54 52 52 53 57 59 57 56 56 57 58 58 59 58 58 57 57 56 55 54 53 52 53 53 53 54 54 54 55 53 52 51 49 48 48 47 46 46 47 48 49 49 48 48 48 50 53 56 60 63 62 62 61 59 58 57 56 55 53 52 51 49 46 43 41 39 36 34 34
63 62 61 60 59 59 59 60 59 59 60 59 59 62 60 55 54 55 57 58 57 54 53 56 58 58 58 58 58 57 57 58 58 59 59 59 59 57 55 54 53 53 53 52 53 54 54 54 54 53 52 51 50 49 49 49 49 50 51 51 49 49 50 51 53 56 58 62 65 64 62 62 62 59 56 56 56 55 53 49 46 42 38 37 38 37 35 34
65 64 63 60 60 61 60 61 61 60 60 62 62 60 57 55 53 53 55 57 59 58 57 58 59 59 58 59 59 59 59 59 59 59 59 61 62 60 58 57 56 54 53 53 55 55 56 56 56 55 54 53 52 52 52 52 53 54 54 53 52 53 54 55 57 59 60 63 66 65 64 62 61 59 57 57 56 54 51 46 41 37 34 34 35 36 35 35
67 67 64 62 62 63 62 63 63 61 62 65 66 63 59 55 53 55 55 53 55 58 59 59 59 60 60 58 58 59 61 61 61 61 61 62 63 63 61 59 59 58 56 57 59 59 58 58 59 59 57 57 56 56 57 57 57 56 55 55 55 56 58 58 60 61 61 64 66 67 66 61 57 57 56 55 53 49 45 42 39 34 31 32 33 35 36 37
70 70 66 64 65 66 65 65 66 66 67 67 65 64 62 59 57 58 57 54 52 52 55 58 59 60 61 59 57 56 58 60 61 62 63 63 63 63 63 61 60 60 58 59 59 59 60 62 63 64 63 64 63 61 61 59 59 57 56 58 58 59 61 62 63 64 64 65 66 68 68 59 52 54 53 50 48 44 42 41 40 34 31 32 34 35 36 37
72 73 69 67 69 69 69 70 70 70 70 70 68 66 65 64 63 60 59 60 58 51 49 53 57 59 61 61 58 55 54 55 58 60 62 63 62 62 62 61 59 58 57 58 59 60 61 62 63 65 67 67 65 64 63 62 62 61 60 62 62 62 63 63 66 68 67 67 64 67 68 55 46 48 47 45 45 43 42 42 41 37 34 35 37 37 38 39
71 73 72 71 73 73 73 75 74 73 73 71 68 66 67 68 67 64 63 64 64 60 54 52 54 56 60 62 60 57 54 52 53 55 57 59 59 59 59 59 58 58 58 58 58 58 58 57 59 63 66 67 66 66 66 66 66 66 67 68 67 68 69 69 69 68 66 65 63 66 65 49 39 43 43 44 47 46 46 46 45 43 40 40 41 41 41 41
69 71 72 73 74 74 76 78 77 77 76 71 67 68 70 69 68 67 66 65 65 64 62 58 55 55 57 58 60 59 55 53 51 50 50 53 55 56 56 58 59 59 59 59 59 58 58 59 61 64 66 67 68 68 68 69 70 71 73 73 71 71 70 67 65 63 63 64 62 65 63 48 40 43 44 47 51 49 49 51 50 49 47 46 47 46 44 43
66 68 70 72 72 72 75 78 80 79 77 73 71 73 73 71 70 70 69 67 66 65 64 62 60 59 58 57 58 59 57 55 52 48 46 47 49 51 53 56 58 59 59 59 57 55 55 57 59 61 63 66 68 70 72 74 75 75 75 73 70 68 65 63 63 62 63 63 60 63 61 50 45 47 47 50 53 51 52 55 54 53 53 53 51 49 47 45
66 67 69 69 68 69 72 74 77 79 78 77 77 77 76 74 73 71 69 69 69 68 66 64 62 62 62 61 59 60 60 58 55 51 48 45 45 46 49 51 54 57 57 56 53 50 50 51 53 55 60 66 70 72 74 73 71 69 68 66 65 62 61 61 60 60 62 62 60 63 61 53 50 52 52 53 54 54 55 56 56 57 59 59 55 51 50 50
68 69 69 69 68 69 71 70 72 77 80 80 80 80 79 77 75 72 71 72 71 69 67 65 64 65 66 65 62 61 61 60 58 56 54 50 47 45 46 48 50 51 51 51 50 49 50 51 52 54 59 65 69 70 69 69 67 66 65 63 62 60 59 57 56 60 63 63 64 64 61 57 55 54 55 54 55 57 57 55 56 58 60 60 57 54 55 54
72 70 69 69 70 71 71 70 70 74 78 79 81 82 81 80 78 76 77 76 73 70 69 68 68 68 68 66 65 63 62 61 61 60 57 55 52 50 50 50 50 49 48 49 49 50 53 53 54 56 58 60 62 63 65 68 69 69 68 67 65 63 61 59 61 64 65 65 66 63 60 59 57 54 54 54 55 57 56 54 56 56 56 56 57 57 58 58
73 71 70 71 73 73 72 71 71 73 75 76 78 80 81 82 81 81 80 78 75 74 73 72 71 70 68 67 66 66 64 63 64 63 59 57 56 55 54 53 52 50 50 52 52 52 55 55 53 55 58 56 54 55 59 63 66 67 69 69 67 65 64 63 66 66 65 67 68 62 59 62 58 54 54 54 54 55 55 55 56 54 54 56 58 58 58 59
74 73 72 73 75 75 73 72 72 73 74 74 74 75 78 80 81 81 81 80 79 78 78 77 73 69 67 67 68 69 67 66 65 62 59 58 58 58 56 55 54 53 53 54 54 53 55 54 52 55 59 57 54 53 55 58 60 62 64 66 67 68 68 68 69 68 66 68 69 63 63 64 59 53 52 52 52 53 54 54 54 53 55 57 58 58 57 58
75 74 74 76 78 77 75 75 75 75 74 74 75 74 75 76 78 78 79 81 82 81 80 79 74 70 70 70 71 72 70 67 65 61 59 60 60 59 59 58 56 56 56 55 55 54 53 51 50 54 58 56 51 52 55 57 58 58 58 61 62 64 67 69 69 69 68 69 68 65 66 64 56 51 50 49 50 51 51 52 53 54 56 57 57 58 57 57
76 76 77 79 80 79 78 77 77 77 76 74 74 73 74 76 77 76 76 78 80 80 81 80 76 73 73 75 76 75 70 67 66 63 62 64 63 62 61 60 59 59 59 57 56 55 53 51 49 51 56 53 47 49 55 57 58 59 58 56 55 56 59 61 62 63 63 64 63 63 65 60 52 48 47 46 49 51 52 53 55 55 56 57 57 57 56 54
75 76 78 80 81 81 80 79 79 79 78 76 74 73 74 75 75 75 76 78 77 77 79 79 78 76 76 77 77 74 69 68 68 67 68 68 67 66 65 64 62 63 62 60 59 56 53 51 49 48 52 49 43 46 53 56 61 62 54 48 48 51 53 55 56 56 57 59 60 61 60 54 48 48 49 50 53 56 56 56 57 56 56 57 56 55 54 52
Wind_Direction
212 213 213 213 212 212 212 212 213 214 215 215 215 215 214 213 213 213 214 215 216 216 216 215 213 212 210 209 208 205 204 203 203 203 202 200 198 197 197 196 195 196 197 199 200 200 202 203 202 202 201 202 203 205 208 211 216 222 232 243 257 271 282 291 300 306 309 311 311 313 315 317 317 315 311 307 306 304 301 301 301 297 294 289 280 273 272 274
213 213 214 214 214 214 214 214 215 215 216 217 217 217 216 216 216 215 216 217 218 218 216 214 212 210 208 207 206 203 203 203 203 203 202 200 199 198 198 197 197 199 200 201 202 202 202 203 203 203 203 204 206 209 213 217 222 228 236 246 258 269 280 289 297 302 304 304 303 309 315 319 319 315 311 309 307 306 303 301 297 294 291 287 281 276 274 273
215 215 215 215 215 215 215 216 216 217 217 218 218 218 218 218 218 218 218 219 220 219 217 214 211 209 207 206 204 203 204 204 205 204 203 202 201 201 200 200 200 202 203 204 205 203 203 204 204 205 205 206 209 212 217 222 227 233 240 248 258 268 279 287 294 298 299 298 297 305 314 318 320 318 316 314 312 313 308 301 296 293 289 286 280 275 274 274
216 216 216 216 216 216 217 217 218 218 218 218 219 219 219 219 219 219 220 220 221 221 218 215 211 208 206 205 204 203 205 206 206 206 205 205 204 204 203 203 203 204 205 205 206 205 204 204 205 206 208 210 213 216 221 227 232 238 244 251 261 269 277 284 289 291 292 292 293 302 312 318 320 320 318 316 318 319 312 303 298 293 288 284 278 272 272 274
216 217 217 217 217 218 218 219 220 220 220 219 219 219 220 220 221 221 221 221 222 221 220 215 212 208 206 205 204 205 207 207 207 208 207 207 206 206 206 206 206 206 206 207 207 206 205 206 206 208 211 214 217 221 226 232 237 243 250 256 263 269 275 280 282 284 286 287 290 299 310 317 320 319 318 318 321 321 315 308 301 295 289 284 278 271 269 273
217 218 218 219 219 219 220 221 221 221 222 221 220 220 220 221 221 222 222 222 223 222 220 216 212 209 207 207 206 207 209 209 209 210 210 209 209 208 208 208 208 208 208 209 209 208 207 208 209 211 214 218 222 225 230 236 241 247 254 259 263 269 272 274 276 279 281 283 287 296 307 315 317 316 316 319 322 321 318 314 305 297 289 283 278 271 268 270
218 218 219 220 221 221 221 222 222 222 222 222 222 221 221 222 222 222 222 222 223 223 222 218 213 210 208 208 209 210 212 212 212 213 213 213 212 211 211 211 211 210 210 210 210 210 210 211 212 214 217 221 226 230 235 241 246 251 256 261 265 269 269 269 270 274 277 280 286 293 303 311 313 312 313 319 323 322 321 317 307 298 291 285 279 273 268 267
220 220 220 221 222 223 223 223 224 223 223 223 223 223 223 223 223 223 223 223 223 223 222 220 215 211 210 211 212 213 214 215 215 215 216 216 215 215 214 213 213 212 211 211 211 211 211 212 214 216 220 224 229 235 241 246 251 255 259 262 265 266 265 265 266 270 274 278 284 290 299 306 309 309 310 319 324 322 321 317 310 301 293 288 284 279 274 271
221 221 222 222 223 224 225 225 226 226 225 225 225 225 224 224 224 223 223 223 223 224 223 221 217 213 211 213 214 216 216 217 217 218 218 218 218 217 216 215 214 213 211 210 210 211 212 214 216 219 222 227 233 238 244 249 254 257 259 260 261 262 263 263 264 267 271 276 281 287 295 302 307 306 308 320 323 319 318 316 311 304 295 291 288 286 283 281
221 222 222 223 224 225 225 226 227 227 227 227 227 227 227 226 225 224 224 223 223 224 224 223 220 215 213 214 216 218 218 219 219 219 219 219 220 219 218 216 214 213 211 210 210 211 213 216 219 222 225 230 235 239 244 249 253 257 258 259 259 260 262 263 264 265 269 274 279 284 291 298 302 302 306 318 319 314 316 314 312 306 299 293 288 287 286 285
221 221 222 223 224 225 225 226 227 227 228 229 229 230 230 228 227 226 225 224 224 224 224 224 222 217 215 215 217 219 219 221 221 220 220 220 220 220 219 216 215 214 213 212 212 213 216 219 222 225 227 230 234 237 242 247 252 256 258 259 259 260 262 264 265 266 269 273 277 281 288 293 294 298 305 313 312 311 313 312 311 308 302 296 290 286 284 283
221 221 222 222 223 224 225 226 227 227 228 228 230 230 231 231 229 228 227 226 225 225 225 225 223 220 217 216 218 220 220 222 222 221 221 220 220 220 219 218 217 216 215 216 216 217 218 220 223 226 228 231 234 236 239 244 249 254 258 260 260 261 265 268 271 272 272 274 277 280 287 291 290 296 304 307 307 308 310 309 310 308 303 299 293 288 284 281
221 221 222 222 223 224 225 226 227 227 228 228 229 230 231 231 230 230 228 227 226 226 225 226 225 223 219 218 219 221 221 222 223 223 222 220 220 220 220 220 219 219 219 219 219 220 220 222 224 226 229 232 235 238 241 244 248 252 256 259 261 265 270 274 278 279 277 276 278 280 286 291 291 297 301 302 305 307 308 308 308 306 303 300 296 291 286 283
221 222 222 222 222 223 224 225 226 227 228 229 229 230 231 231 230 230 229 228 227 227 226 226 227 225 222 220 220 221 222 223 223 224 224 222 221 221 221 221 221 221 221 222 222 222 223 223 225 227 230 234 237 240 243 247 249 252 255 259 262 268 274 279 284 284 281 279 279 281 286 291 294 298 301 302 305 307 308 307 305 303 301 300 296 292 287 284
221 222 222 223 223 223 223 224 224 226 227 228 229 230 230 231 231 230 230 229 228 227 227 227 228 227 225 223 222 221 222 223 224 224 225 224 223 222 222 222 222 223 224 224 224 225 226 227 227 229 232 235 239 243 246 248 251 253 256 260 267 273 277 280 283 283 281 281 282 284 288 293 295 298 301 304 306 307 308 306 304 302 300 297 294 291 288 285
221 222 223 223 224 224 224 224 224 224 226 227 228 229 230 230 230 230 230 229 229 228 227 227 228 228 227 226 224 223 223 224 225 225 225 225 225 225 224 224 224 225 226 227 227 228 229 229 230 232 235 238 241 245 248 250 252 255 258 263 270 274 275 276 278 279 280 282 283 285 289 296 295 296 302 304 305 307 308 307 303 301 297 294 291 290 289 287
222 222 222 223 224 225 226 226 226 225 225 226 227 228 229 230 230 230 230 230 230 229 228 228 228 228 228 227 226 225 225 224 226 226 226 226 226 226 226 226 226 227 228 229 230 231 231 232 234 235 238 241 245 247 249 251 254 258 262 266 268 269 271 274 277 278 280 281 282 285 290 296 295 298 302 302 304 307 309 307 302 299 296 294 292 291 290 289
223 223 223 223 223 224 225 227 228 228 227 227 227 227 228 229 229 230 230 231 231 230 230 229 229 229 229 228 228 228 226 226 226 228 228 228 228 228 228 228 228 229 230 231 232 232 234 235 237 239 241 244 246 248 250 253 257 261 264 265 266 268 271 274 277 277 279 280 282 285 288 291 295 300 301 301 304 308 310 307 302 299 298 297 294 291 290 290
224 224 224 225 225 225 225 225 227 228 229 229 228 228 228 229 229 230 230 231 231 231 231 230 229 230 230 229 229 229 228 227 227 228 229 230 229 229 229 230 230 231 232 233 234 235 236 237 239 241 244 246 248 250 254 257 260 262 263 264 266 269 272 275 275 276 278 280 283 286 287 288 293 299 300 301 305 308 308 305 303 301 299 297 295 294 292 289
225 225 225 225 226 227 227 227 227 227 228 229 230 229 229 229 229 230 230 231 231 231 232 231 231 230 231 231 230 230 229 228 228 228 230 231 231 231 231 231 232 233 234 235 236 237 238 239 241 242 244 247 250 254 256 259 261 262 264 266 268 270 272 273 274 276 278 280 282 285 285 288 292 294 297 300 305 308 306 305 305 302 298 295 295 296 294 290
225 226 226 226 227 228 229 230 230 230 230 229 230 230 230 230 230 230 230 231 232 232 232 232 231 231 232 232 232 232 231 231 229 229 230 231 232 232 233 233 234 235 235 236 238 238 240 241 242 244 247 250 253 255 257 260 262 264 266 268 269 270 271 273 275 277 278 280 282 284 284 286 289 291 294 298 301 304 305 304 304 301 298 295 293 293 293 291
226 226 227 227 228 228 229 231 232 233 233 233 232 232 232 232 232 232 232 232 232 232 232 232 232 232 232 233 233 233 233 233 232 231 231 232 233 234 234 234 235 236 236 237 239 240 241 243 244 246 248 251 254 256 258 261 263 265 267 268 270 271 272 273 275 277 279 281 282 283 283 283 286 289 294 297 298 301 302 301 302 300 297 294 292 292 291 291
228 229 229 229 229 229 229 231 232 234 235 236 236 235 234 233 233 233 233 233 233 233 233 233 232 232 232 233 233 234 234 233 233 233 232 232 233 234 235 235 236 237 238 239 240 241 242 243 244 247 250 252 255 257 259 261 263 265 267 269 270 272 272 273 275 277 280 282 283 283 282 281 285 288 292 296 297 301 301 300 301 300 296 293 292 292 291 290
231 231 232 232 231 231 230 231 232 234 235 236 238 238 238 237 236 236 235 235 233 233 234 234 233 233 233 234 233 234 234 234 235 235 234 233 234 235 235 236 237 238 239 240 241 242 243 244 245 248 251 253 255 258 260 261 262 264 266 268 270 271 273 275 276 277 279 281 283 285 283 281 283 287 291 294 297 301 302 302 303 300 296 295 293 292 289 287
234 233 233 233 233 233 233 232 232 233 234 236 237 238 239 240 240 239 239 238 234 232 234 235 234 234 235 235 235 235 236 235 235 236 236 235 235 235 236 236 238 239 240 241 242 243 244 246 248 249 251 254 256 258 259 261 261 263 265 267 269 271 273 275 277 278 279 280 282 284 284 281 282 287 290 292 294 298 302 304 302 299 298 297 295 292 288 286
237 236 235 234 233 234 234 235 235 235 234 235 237 237 239 240 241 242 242 243 238 233 234 235 235 235 236 237 238 238 238 236 236 238 237 237 237 236 237 237 238 239 241 242 243 244 245 247 249 250 252 253 255 257 258 260 260 262 264 266 268 271 274 275 277 279 280 281 281 282 284 283 282 285 290 290 292 297 303 303 298 298 299 298 296 293 288 286
237 237 237 237 235 233 234 236 238 238 236 236 236 237 239 239 241 242 243 245 241 234 234 236 237 237 236 237 238 240 239 237 238 239 239 239 239 238 238 239 239 240 241 243 244 245 247 248 249 251 251 252 254 256 257 258 260 263 265 266 268 270 273 274 277 279 280 282 281 282 285 285 283 285 288 288 291 298 301 299 297 299 300 298 295 290 288 287
235 235 236 238 236 234 235 236 238 240 240 240 238 238 238 239 241 241 243 245 241 235 234 235 237 238 237 237 238 239 240 237 237 239 239 240 240 240 240 240 240 241 242 243 244 244 245 246 248 249 251 253 254 256 257 259 262 264 266 266 268 270 272 274 276 278 281 282 280 282 286 286 286 286 287 289 293 295 295 297 299 301 300 296 291 288 287 287
234 234 235 237 237 236 235 235 236 239 240 242 242 241 240 240 240 241 242 244 240 237 237 235 235 237 238 239 238 239 240 239 238 238 238 239 239 239 240 240 241 241 242 243 243 244 245 246 247 249 251 254 255 256 258 260 262 264 266 267 268 270 271 273 276 278 282 281 280 283 286 287 287 285 287 293 293 291 294 298 299 299 298 294 290 287 286 284
234 235 236 237 238 238 237 236 237 239 240 241 242 243 243 242 241 241 242 242 241 240 240 237 235 236 238 240 240 240 240 240 240 240 238 238 239 240 240 240 241 242 243 243 244 245 246 247 248 250 252 254 256 258 259 261 263 264 265 266 268 269 271 274 276 279 281 279 281 284 285 287 286 284 288 295 291 291 295 297 298 297 294 291 288 287 285 281
235 235 236 237 238 238 238 237 238 240 241 242 243 243 244 245 243 243 243 243 244 243 242 240 238 237 238 240 241 241 241 241 241 241 241 239 240 240 241 241 242 243 244 245 246 247 248 249 251 252 254 255 256 258 259 260 261 262 263 266 269 271 273 274 275 277 278 279 283 285 284 285 283 284 290 293 291 292 294 295 298 297 292 288 286 283 281 279
234 234 235 236 237 238 237 237 237 239 239 240 243 244 245 245 244 244 244 244 244 242 241 242 241 239 239 239 240 240 241 240 240 241 242 241 240 240 241 242 244 245 246 247 248 249 249 251 252 252 252 253 254 255 257 259 261 263 265 267 269 271 272 273 275 276 277 281 283 283 283 282 281 284 291 292 292 292 292 295 297 296 294 290 285 280 275 274
234 234 234 235 236 237 237 237 237 238 238 239 240 242 243 244 245 247 246 244 245 244 243 243 242 241 241 240 240 240 241 242 241 242 243 243 242 241 240 241 243 245 246 247 248 248 249 249 250 252 253 254 255 256 259 261 262 263 264 265 266 268 270 273 276 277 278 281 281 281 281 280 281 287 290 291 291 291 292 295 294 294 294 291 285 278 272 271
234 234 234 235 236 237 237 237 237 238 239 239 239 240 240 241 244 246 246 245 247 249 247 245 243 242 243 242 242 242 243 243 243 243 244 245 244 243 242 242 243 245 247 248 249 250 251 251 251 254 256 257 258 259 260 261 261 261 262 263 264 267 272 275 276 277 279 280 279 279 280 281 284 289 290 290 290 292 293 294 293 292 293 291 284 277 274 273
233 234 234 234 235 236 236 236 237 239 240 240 240 241 242 243 243 243 244 245 247 247 247 247 246 244 243 242 242 242 243 243 243 243 245 246 246 245 245 245 246 247 248 250 251 253 254 254 254 256 257 258 259 260 260 261 261 262 262 263 266 270 272 273 273 275 278 278 278 279 281 283 286 287 287 289 291 292 293 294 294 292 291 289 283 276 274 272
233 233 234 234 234 235 235 236 236 237 240 240 240 241 242 243 244 243 243 244 246 247 246 247 249 247 246 244 243 244 244 245 245 245 245 246 246 246 246 246 247 248 249 251 253 254 256 256 255 256 257 258 259 259 260 260 260 261 262 264 267 269 268 269 271 273 275 277 279 282 282 283 284 283 284 287 289 291 292 292 293 291 289 286 282 277 274 271
232 232 233 233 234 235 235 235 234 234 236 236 239 241 241 241 241 241 240 241 244 246 245 246 248 248 247 246 244 245 246 247 247 247 247 247 246 246 246 247 248 249 250 253 255 255 257 257 255 256 257 257 258 259 259 259 260 262 263 265 266 266 266 268 270 272 274 277 279 281 281 281 281 280 282 286 288 289 290 291 290 289 287 283 278 277 276 275
232 231 231 231 233 235 234 234 233 233 235 235 235 236 238 238 238 239 239 239 241 243 243 243 246 247 247 246 244 243 244 245 245 246 246 247 246 245 246 247 248 249 250 252 254 255 256 257 256 255 257 257 258 258 259 260 261 263 264 265 265 266 268 269 271 273 274 276 278 279 278 278 278 280 283 285 286 288 290 290 287 285 285 282 279 279 279 278
232 231 230 229 232 234 234 234 233 232 233 235 235 233 234 234 234 236 237 237 239 241 241 241 243 246 247 247 246 245 245 245 245 245 246 246 246 245 245 247 248 249 250 252 253 254 255 256 256 255 256 257 257 257 258 260 262 264 265 265 266 267 269 269 270 271 273 275 277 278 277 275 276 280 283 285 286 288 288 285 281 280 282 282 282 280 279 278
234 232 229 229 232 233 233 234 233 232 232 234 235 235 234 232 231 233 234 234 236 238 239 239 239 242 245 246 247 247 247 247 246 246 247 246 246 246 245 247 248 249 251 252 253 253 254 254 255 255 255 256 257 258 260 261 262 263 263 264 265 266 268 269 270 271 272 273 275 276 276 275 277 281 284 285 286 285 282 279 278 280 280 280 279 277 276 276
235 234 230 229 232 234 234 234 234 234 234 234 234 236 236 233 231 231 231 233 235 236 235 235 235 237 241 244 246 246 247 247 247 247 247 247 247 246 246 248 250 250 252 254 254 254 255 256 256 256 255 257 258 259 260 260 260 261 261 262 263 265 266 267 268 270 271 271 273 276 277 276 278 282 284 284 283 280 279 280 282 283 282 279 276 274 273 273
236 235 232 232 234 235 236 236 235 235 236 235 235 237 238 237 234 232 231 234 236 236 234 234 235 237 238 240 243 245 246 248 249 248 248 247 246 245 246 248 250 251 253 254 255 255 256 256 256 256 255 256 256 256 257 257 258 259 259 261 262 263 264 265 266 268 269 271 272 274 276 276 277 279 280 280 279 280 282 284 285 285 283 281 278 274 273 272
237 235 233 234 235 236 238 238 237 236 236 235 236 237 238 238 236 234 233 234 237 238 237 236 237 239 240 240 241 243 246 249 250 252 253 251 247 244 245 247 250 252 253 254 255 255 254 254 253 254 254 254 254 254 254 256 257 258 260 262 263 263 264 264 265 266 267 269 271 273 274 274 273 274 276 277 278 280 283 283 283 284 284 283 280 278 276 275
238 236 234 235 236 237 238 238 238 238 237 236 235 236 236 237 236 235 235 236 237 239 239 238 238 240 241 241 241 242 243 246 248 250 252 253 250 247 247 248 249 251 252 254 256 257 256 255 254 254 254 253 253 253 254 256 257 259 261 263 264 265 265 265 266 266 267 269 272 272 271 270 270 272 273 274 276 279 280 281 283 285 285 281 279 280 281 280
238 236 235 235 237 238 238 238 238 239 238 237 237 237 237 237 237 237 237 237 237 237 238 239 239 239 240 240 241 241 240 242 244 245 245 247 247 248 249 248 249 250 252 253 255 256 255 254 252 251 252 253 253 254 256 258 260 262 262 263 265 266 267 268 268 268 267 268 268 267 268 269 270 271 272 274 277 279 279 281 284 284 282 280 281 284 284 282
238 237 235 235 237 239 239 238 237 238 238 237 238 238 237 237 237 238 238 237 237 237 238 238 238 239 240 240 240 240 239 240 242 243 242 242 243 244 245 246 246 248 249 252 254 254 254 254 252 251 252 254 255 257 258 259 259 260 260 260 261 262 263 264 263 263 265 266 264 265 268 269 269 271 274 276 278 279 279 279 279 278 279 282 284 285 284 283
238 237 236 236 237 238 239 238 237 237 237 237 238 238 238 238 237 237 237 237 237 237 237 238 238 239 240 241 242 242 240 240 241 242 241 241 242 244 245 246 247 247 247 250 252 254 256 257 257 256 255 256 257 258 259 259 259 258 258 257 257 258 258 257 257 260 263 263 263 266 270 269 269 271 273 275 275 276 277 276 274 275 279 282 282 281 282 284
238 238 237 237 238 238 238 238 239 239 238 238 239 238 238 238 238 237 238 238 238 238 238 237 237 239 241 242 244 244 243 243 243 242 240 241 244 246 248 249 249 249 249 251 252 255 258 260 261 262 261 258 257 257 258 258 259 258 257 256 255 255 255 256 258 261 262 262 264 267 268 267 268 269 271 272 272 273 274 273 274 276 278 277 277 278 279 282
237 238 238 238 238 239 239 238 239 239 238 238 240 240 239 238 238 238 239 239 238 238 238 238 238 239 241 242 244 244 244 245 245 244 242 244 247 249 250 251 251 251 251 252 254 257 262 265 266 264 262 259 257 257 257 258 258 258 257 256 255 255 256 257 259 261 262 263 264 265 263 264 267 269 269 270 270 270 271 272 274 274 273 273 274 276 277 279
236 236 237 238 239 238 238 238 239 239 238 237 239 239 239 239 238 238 239 239 239 238 239 240 240 239 240 241 242 243 243 245 248 248 248 249 249 250 251 252 252 252 253 253 255 257 261 265 265 262 261 260 257 256 256 256 257 258 258 257 256 257 258 259 260 261 261 263 265 266 264 265 268 268 268 268 268 268 269 269 269 268 269 271 272 274 276 279
236 235 235 237 238 238 238 238 238 239 239 237 238 238 239 239 238 238 239 240 240 240 240 240 240 240 239 239 240 242 244 246 249 249 248 248 248 248 249 250 251 252 253 253 254 255 258 262 263 262 262 263 261 257 255 254 255 255 255 256 258 260 261 261 261 262 262 264 265 264 264 266 269 269 267 266 265 264 264 264 264 265 267 268 270 273 276 278
237 236 235 236 237 237 237 237 237 238 239 238 238 238 238 239 238 238 239 239 239 240 240 240 239 239 239 239 239 241 244 245 247 247 246 246 247 247 247 248 249 251 252 253 254 254 255 258 262 262 262 264 262 256 253 252 250 250 253 258 262 263 263 262 262 262 263 263 263 262 265 268 268 265 262 260 259 260 262 263 264 265 266 268 270 273 275 277
Height
5795 5797 5800 5802 5804 5806 5809 5811 5812 5814 5816 5817 5819 5820 5822 5823 5825 5826 5827 5829 5830 5831 5833 5834 5835 5837 5838 5839 5841 5842 5844 5845 5846 5848 5849 5850 5851 5852 5853 5854 5855 5856 5857 5858 5859 5860 5861 5862 5863 5864 5865 5867 5868 5869 5870 5871 5872 5873 5873 5873 5874 5874 5874 5874 5874 5874 5874 5875 5875 5875 5875 5874 5874 5874 5874 5874 5873 5873 5872 5872 5872 5872 5872 5872 5873 5873 5873 5873
5792 5795 5797 5799 5802 5804 5806 5808 5810 5812 5814 5816 5817 5819 5820 5822 5823 5825 5826 5827 5829 5830 5831 5833 5834 5835 5837 5838 5840 5841 5843 5844 5846 5847 5848 5849 5850 5851 5852 5853 5854 5855 5856 5857 5858 5859 5860 5862 5863 5864 5865 5866 5867 5868 5869 5870 5871 5872 5872 5873 5873 5873 5873 5873 5873 5873 5873 5874 5874 5874 5874 5873 5873 5873 5873 5872 5872 5872 5871 5871 5871 5871 5871 5872 5872 5872 5872 5873
5790 5792 5795 5797 5799 5801 5804 5806 5808 5810 5812 5814 5815 5817 5819 5820 5822 5823 5825 5826 5827 5829 5830 5831 5833 5834 5835 5837 5839 5840 5842 5843 5845 5846 5847 5848 5849 5850 5851 5852 5853 5854 5855 5856 5857 5859 5860 5861 5862 5863 5864 5865 5866 5867 5868 5869 5870 5871 5871 5872 5872 5872 5873 5873 5873 5872 5872 5873 5873 5873 5873 5872 5872 5872 5871 5871 5871 5871 5870 5870 5870 5870 5870 5870 5871 5871 5871 5872
5787 5790 5792 5794 5797 5799 5801 5803 5805 5808 5809 5811 5813 5815 5817 5818 5820 5821 5823 5824 5826 5827 5828 5830 5831 5833 5834 5836 5837 5839 5841 5842 5844 5845 5846 5847 5848 5849 5850 5851 5852 5853 5854 5855 5856 5858 5859 5860 5861 5862 5863 5864 5865 5866 5867 5868 5869 5869 5870 5871 5871 5872 5872 5872 5872 5872 5872 5872 5872 5872 5872 5871 5871 5870 5870 5870 5870 5870 5869 5869 5869 5869 5869 5869 5870 5870 5870 5870
5784 5786 5789 5792 5794 5797 5799 5801 5803 5805 5807 5809 5811 5812 5814 5816 5818 5819 5821 5822 5824 5825 5827 5828 5830 5831 5833 5834 5836 5838 5840 5841 5842 5844 5844 5846 5847 5848 5849 5850 5851 5852 5853 5854 5855 5856 5858 5859 5860 5861 5862 5863 5864 5865 5866 5867 5867 5868 5869 5869 5870 5870 5871 5871 5871 5871 5871 5871 5871 5871 5871 5870 5870 5869 5869 5869 5868 5869 5868 5868 5868 5868 5869 5869 5869 5869 5869 5869
5780 5783 5786 5788 5791 5794 5796 5798 5801 5803 5805 5807 5808 5810 5812 5813 5815 5817 5819 5820 5822 5823 5825 5826 5828 5830 5831 5833 5835 5837 5838 5839 5841 5842 5843 5844 5845 5846 5847 5848 5850 5851 5852 5853 5854 5855 5857 5858 5859 5860 5861 5862 5863 5864 5865 5865 5866 5867 5867 5868 5868 5869 5869 5869 5869 5869 5870 5870 5870 5870 5870 5869 5869 5868 5868 5868 5867 5867 5867 5867 5867 5867 5867 5868 5868 5868 5868 5868
5776 5779 5782 5785 5788 5790 5793 5795 5798 5800 5802 5804 5806 5808 5809 5811 5813 5815 5816 5818 5820 5821 5823 5825 5826 5828 5830 5832 5833 5835 5836 5838 5839 5840 5841 5843 5844 5845 5846 5847 5848 5850 5851 5852 5853 5854 5856 5857 5858 5859 5860 5861 5862 5863 5863 5864 5865 5865 5866 5866 5867 5867 5867 5868 5868 5868 5868 5868 5869 5869 5869 5869 5868 5867 5867 5867 5866 5866 5866 5866 5866 5866 5866 5866 5866 5867 5867 5867
5773 5776 5779 5781 5784 5787 5790 5792 5794 5797 5799 5801 5803 5805 5807 5809 5811 5812 5814 5816 5817 5819 5821 5823 5825 5826 5828 5830 5831 5833 5834 5836 5837 5839 5840 5841 5842 5843 5845 5846 5847 5848 5849 5851 5852 5853 5854 5855 5856 5858 5859 5860 5861 5862 5862 5863 5863 5864 5864 5865 5865 5865 5866 5866 5866 5867 5867 5867 5867 5868 5868 5868 5867 5866 5866 5866 5866 5865 5865 5865 5865 5865 5865 5865 5865 5865 5865 5865
5770 5772 5775 5778 5781 5784 5786 5789 5791 5794 5796 5798 5800 5802 5804 5806 5808 5809 5811 5813 5815 5816 5818 5820 5822 5824 5826 5828 5829 5831 5833 5834 5836 5837 5838 5839 5841 5842 5843 5844 5846 5847 5848 5849 5851 5852 5853 5854 5855 5856 5857 5858 5859 5860 5861 5861 5862 5862 5863 5863 5864 5864 5864 5865 5865 5865 5866 5866 5866 5866 5867 5866 5866 5865 5864 5865 5865 5864 5864 5864 5864 5864 5864 5864 5864 5864 5864 5864
5766 5769 5771 5774 5777 5780 5782 5785 5788 5791 5793 5795 5797 5799 5801 5803 5805 5806 5808 5810 5812 5814 5816 5818 5820 5822 5824 5826 5827 5829 5831 5832 5834 5835 5837 5838 5839 5840 5842 5843 5844 5846 5847 5848 5849 5851 5852 5853 5853 5854 5856 5857 5858 5859 5859 5860 5860 5861 5861 5862 5862 5862 5863 5863 5864 5864 5864 5864 5865 5865 5865 5865 5864 5863 5863 5864 5864 5863 5863 5863 5863 5863 5863 5863 5863 5862 5862 5862
5762 5765 5767 5770 5773 5776 5779 5781 5784 5787 5789 5792 5794 5796 5798 5800 5802 5803 5805 5807 5809 5811 5813 5815 5817 5819 5821 5823 5825 5826 5829 5830 5831 5833 5835 5836 5838 5839 5840 5841 5843 5844 5845 5847 5848 5849 5850 5851 5852 5853 5854 5855 5856 5857 5858 5858 5859 5859 5859 5860 5861 5861 5861 5862 5862 5863 5863 5863 5863 5863 5864 5864 5863 5862 5862 5863 5863 5862 5862 5862 5862 5861 5861 5861 5861 5861 5861 5861
5758 5761 5763 5766 5769 5772 5774 5777 5780 5783 5785 5788 5790 5793 5795 5797 5799 5801 5802 5804 5806 5808 5810 5812 5814 5816 5819 5821 5822 5824 5826 5828 5830 5831 5833 5834 5836 5837 5839 5840 5841 5843 5844 5845 5846 5848 5849 5850 5851 5851 5852 5853 5854 5855 5856 5856 5857 5857 5858 5858 5859 5859 5860 5860 5861 5862 5862 5862 5862 5862 5863 5862 5861 5862 5861 5861 5861 5861 5861 5861 5861 5860 5860 5859 5859 5859 5859 5859
5755 5757 5759 5762 5764 5767 5770 5773 5776 5779 5781 5784 5786 5789 5791 5793 5795 5797 5799 5802 5804 5806 5807 5809 5811 5814 5816 5818 5819 5822 5824 5825 5827 5829 5831 5832 5834 5835 5837 5838 5840 5841 5842 5844 5845 5846 5847 5848 5849 5850 5851 5852 5853 5854 5854 5855 5855 5855 5856 5856 5857 5857 5858 5858 5859 5860 5860 5860 5860 5860 5861 5861 5859 5860 5860 5860 5860 5860 5860 5859 5859 5859 5858 5858 5857 5857 5857 5857
5751 5753 5756 5758 5761 5763 5766 5769 5772 5775 5778 5780 5782 5785 5787 5789 5791 5794 5796 5798 5800 5803 5804 5806 5808 5811 5813 5815 5817 5819 5821 5823 5825 5826 5828 5830 5832 5833 5835 5836 5838 5839 5840 5842 5843 5844 5845 5846 5847 5848 5849 5850 5851 5852 5852 5853 5853 5854 5854 5854 5855 5856 5857 5857 5857 5857 5857 5858 5858 5858 5860 5859 5857 5858 5858 5858 5858 5858 5858 5858 5857 5857 5857 5856 5856 5855 5855 5855
5748 5750 5752 5755 5757 5759 5762 5764 5767 5770 5773 5776 5779 5781 5783 5785 5788 5790 5792 5794 5797 5799 5801 5804 5806 5808 5810 5812 5814 5816 5818 5820 5822 5824 5826 5828 5829 5831 5832 5834 5836 5837 5838 5839 5841 5842 5843 5844 5846 5846 5847 5848 5849 5850 5850 5851 5851 5852 5852 5853 5854 5855 5855 5855 5855 5855 5855 5855 5855 5855 5857 5858 5856 5855 5855 5856 5856 5856 5856 5856 5855 5855 5854 5854 5853 5853 5852 5852
5744 5747 5749 5751 5754 5756 5759 5761 5763 5766 5769 5772 5774 5777 5779 5782 5784 5786 5789 5791 5793 5795 5798 5800 5802 5805 5807 5809 5811 5813 5815 5817 5819 5821 5823 5825 5827 5828 5830 5832 5833 5834 5836 5837 5838 5840 5841 5842 5843 5844 5845 5846 5847 5848 5848 5849 5849 5849 5850 5852 5852 5853 5853 5853 5853 5852 5852 5852 5853 5853 5855 5856 5855 5854 5854 5854 5854 5854 5854 5853 5853 5852 5852 5851 5851 5850 5850 5850
5741 5743 5746 5748 5750 5753 5755 5758 5760 5762 5764 5767 5770 5772 5775 5778 5780 5783 5785 5787 5789 5791 5794 5796 5798 5801 5803 5806 5808 5810 5812 5814 5816 5818 5820 5822 5824 5826 5827 5829 5830 5832 5833 5834 5836 5837 5838 5840 5841 5842 5843 5844 5845 5845 5845 5846 5847 5848 5849 5850 5850 5850 5850 5850 5850 5850 5850 5850 5850 5851 5852 5854 5853 5852 5852 5851 5852 5852 5852 5851 5850 5850 5849 5849 5848 5848 5847 5847
5738 5740 5742 5744 5747 5749 5752 5754 5757 5759 5761 5763 5766 5768 5771 5773 5776 5779 5781 5783 5785 5788 5790 5792 5795 5797 5799 5802 5805 5806 5808 5811 5813 5815 5817 5819 5821 5823 5825 5826 5827 5829 5830 5832 5833 5834 5836 5837 5838 5840 5841 5842 5841 5841 5843 5844 5845 5846 5847 5847 5847 5848 5848 5848 5848 5847 5847 5847 5847 5848 5850 5851 5851 5851 5850 5849 5850 5850 5850 5849 5848 5847 5847 5846 5845 5845 5845 5845
5734 5737 5739 5741 5743 5745 5748 5750 5753 5755 5758 5760 5762 5764 5767 5769 5772 5775 5777 5779 5781 5783 5785 5787 5790 5793 5795 5798 5800 5802 5805 5807 5810 5812 5813 5816 5818 5820 5821 5823 5824 5826 5827 5829 5830 5832 5833 5834 5836 5837 5838 5838 5838 5839 5841 5842 5843 5843 5844 5844 5845 5846 5846 5846 5845 5844 5844 5844 5845 5846 5846 5849 5850 5849 5848 5847 5847 5848 5847 5846 5846 5845 5844 5843 5842 5842 5842 5842
5730 5732 5735 5737 5740 5742 5745 5747 5749 5751 5754 5756 5758 5760 5763 5765 5768 5770 5772 5774 5776 5778 5780 5783 5787 5789 5792 5794 5797 5799 5801 5804 5806 5808 5810 5812 5814 5816 5818 5820 5821 5823 5824 5826 5827 5829 5830 5831 5833 5835 5835 5834 5835 5837 5839 5839 5840 5840 5841 5842 5842 5843 5843 5842 5841 5842 5841 5841 5843 5843 5843 5845 5848 5848 5847 5845 5845 5845 5844 5843 5843 5843 5842 5841 5840 5840 5839 5839
5725 5728 5731 5734 5736 5739 5741 5744 5746 5748 5750 5753 5754 5756 5759 5761 5763 5764 5767 5769 5770 5773 5776 5779 5783 5786 5788 5791 5793 5795 5798 5800 5803 5805 5807 5809 5811 5813 5815 5817 5818 5820 5821 5822 5823 5825 5826 5829 5831 5831 5831 5832 5833 5835 5836 5836 5837 5837 5838 5839 5839 5840 5840 5839 5839 5839 5838 5838 5840 5840 5839 5842 5845 5845 5845 5844 5843 5843 5842 5841 5840 5840 5839 5838 5838 5837 5837 5836
5721 5724 5727 5729 5732 5735 5738 5741 5743 5745 5747 5749 5751 5753 5754 5756 5758 5760 5762 5764 5766 5769 5772 5775 5778 5781 5784 5786 5789 5792 5794 5796 5799 5801 5803 5805 5807 5809 5811 5813 5815 5816 5817 5818 5820 5821 5823 5826 5827 5827 5828 5829 5830 5832 5833 5833 5834 5835 5835 5836 5836 5836 5836 5836 5836 5836 5835 5835 5836 5836 5836 5838 5841 5842 5843 5842 5841 5841 5840 5838 5838 5837 5836 5835 5835 5834 5834 5833
5716 5719 5722 5725 5728 5731 5734 5737 5739 5741 5743 5745 5747 5748 5750 5751 5753 5755 5757 5759 5761 5764 5767 5771 5774 5776 5779 5782 5784 5787 5790 5792 5794 5797 5799 5801 5803 5804 5807 5809 5810 5811 5813 5815 5816 5818 5820 5823 5823 5824 5825 5826 5827 5829 5829 5830 5831 5831 5831 5832 5833 5833 5832 5833 5833 5832 5832 5832 5832 5832 5831 5834 5838 5840 5840 5839 5838 5839 5837 5836 5836 5834 5833 5832 5832 5832 5831 5831
5712 5715 5717 5720 5723 5726 5729 5732 5735 5737 5738 5741 5743 5743 5746 5748 5749 5751 5752 5753 5756 5760 5763 5766 5769 5773 5776 5777 5780 5783 5786 5788 5790 5793 5795 5797 5798 5800 5802 5804 5805 5808 5810 5811 5812 5814 5817 5818 5820 5821 5822 5823 5824 5826 5826 5826 5827 5828 5828 5829 5829 5829 5829 5829 5829 5829 5830 5829 5828 5827 5825 5828 5835 5837 5837 5837 5835 5836 5834 5832 5832 5830 5829 5829 5829 5829 5828 5827
5707 5710 5712 5716 5718 5722 5725 5728 5731 5732 5734 5737 5737 5739 5742 5744 5745 5747 5747 5747 5750 5756 5759 5762 5766 5769 5771 5773 5777 5780 5781 5784 5787 5788 5790 5792 5794 5795 5797 5799 5801 5804 5806 5806 5808 5811 5814 5815 5817 5818 5819 5820 5821 5822 5822 5822 5823 5824 5825 5826 5825 5825 5825 5825 5825 5825 5826 5826 5825 5824 5819 5820 5830 5834 5834 5834 5833 5833 5832 5830 5828 5826 5826 5826 5826 5826 5825 5824
5702 5705 5708 5710 5713 5717 5720 5724 5725 5726 5730 5731 5731 5736 5738 5739 5741 5741 5742 5741 5744 5753 5757 5759 5762 5764 5768 5771 5774 5775 5775 5780 5784 5784 5786 5788 5788 5790 5792 5794 5797 5800 5801 5801 5803 5807 5811 5811 5813 5814 5815 5817 5817 5818 5818 5817 5818 5820 5822 5822 5821 5821 5822 5821 5822 5821 5821 5822 5822 5822 5816 5813 5821 5830 5831 5830 5830 5831 5830 5827 5824 5823 5822 5822 5822 5822 5821 5821
5697 5700 5702 5704 5708 5712 5716 5718 5719 5722 5724 5724 5727 5732 5732 5735 5735 5736 5738 5734 5738 5750 5754 5755 5758 5761 5766 5768 5769 5769 5770 5778 5781 5779 5782 5783 5784 5786 5788 5790 5793 5795 5796 5796 5798 5804 5807 5807 5808 5810 5811 5812 5813 5814 5814 5813 5814 5816 5818 5818 5817 5818 5818 5817 5818 5817 5817 5818 5817 5819 5815 5808 5811 5824 5828 5827 5828 5829 5827 5824 5821 5820 5820 5819 5818 5817 5817 5817
5692 5694 5696 5699 5703 5707 5710 5713 5715 5717 5718 5719 5724 5726 5727 5730 5729 5731 5732 5726 5733 5746 5749 5752 5756 5758 5761 5762 5763 5764 5767 5774 5775 5774 5777 5778 5779 5781 5783 5786 5789 5789 5790 5790 5795 5800 5801 5801 5803 5804 5805 5807 5809 5810 5809 5809 5810 5812 5814 5813 5813 5814 5813 5813 5814 5813 5814 5813 5813 5816 5812 5803 5803 5815 5823 5824 5825 5825 5823 5821 5819 5818 5817 5815 5814 5813 5813 5813
5686 5688 5691 5694 5697 5700 5704 5708 5711 5712 5714 5717 5719 5719 5722 5723 5722 5725 5722 5719 5732 5743 5744 5749 5752 5753 5756 5757 5759 5760 5763 5767 5768 5769 5772 5771 5773 5775 5777 5781 5782 5783 5784 5786 5790 5794 5794 5796 5798 5799 5801 5804 5805 5805 5805 5806 5807 5808 5809 5808 5809 5809 5809 5810 5809 5809 5810 5808 5810 5813 5807 5800 5796 5804 5817 5821 5820 5820 5820 5818 5816 5815 5814 5812 5811 5809 5809 5809
5680 5683 5686 5688 5691 5695 5699 5703 5706 5708 5711 5713 5713 5715 5716 5714 5716 5717 5711 5717 5734 5739 5738 5743 5747 5749 5751 5752 5754 5757 5759 5761 5762 5765 5766 5766 5768 5770 5772 5775 5776 5777 5779 5781 5786 5788 5789 5792 5793 5795 5798 5800 5800 5800 5801 5802 5802 5803 5804 5803 5804 5804 5804 5806 5805 5806 5805 5803 5808 5809 5803 5798 5791 5793 5811 5819 5816 5816 5816 5815 5813 5812 5811 5809 5807 5806 5805 5805
5674 5678 5680 5683 5687 5690 5694 5699 5702 5704 5706 5708 5709 5710 5708 5707 5710 5705 5706 5722 5733 5731 5731 5737 5742 5746 5748 5749 5751 5752 5754 5755 5757 5758 5759 5762 5763 5764 5767 5770 5771 5773 5774 5777 5782 5784 5785 5787 5789 5792 5794 5796 5796 5796 5796 5796 5797 5798 5799 5799 5799 5799 5800 5801 5801 5801 5799 5799 5805 5804 5798 5794 5786 5788 5805 5812 5811 5812 5811 5810 5809 5807 5807 5805 5804 5804 5802 5801
5668 5671 5675 5678 5681 5684 5688 5693 5696 5697 5700 5703 5704 5702 5700 5699 5697 5697 5710 5725 5724 5720 5726 5732 5737 5742 5744 5744 5744 5745 5747 5748 5751 5752 5753 5756 5757 5760 5764 5765 5767 5769 5769 5775 5778 5778 5780 5782 5784 5786 5788 5790 5790 5790 5791 5791 5793 5793 5794 5795 5795 5795 5795 5795 5797 5796 5794 5797 5800 5798 5793 5786 5782 5789 5799 5803 5806 5808 5806 5806 5804 5801 5801 5801 5800 5800 5799 5797
5660 5665 5669 5671 5675 5679 5684 5688 5690 5691 5694 5698 5697 5695 5693 5688 5688 5698 5713 5719 5714 5716 5724 5728 5731 5734 5735 5736 5738 5740 5742 5742 5745 5747 5747 5749 5751 5755 5758 5759 5763 5763 5766 5771 5771 5771 5773 5776 5778 5780 5782 5784 5785 5786 5787 5788 5788 5789 5790 5790 5790 5790 5790 5790 5791 5789 5789 5793 5795 5793 5788 5780 5780 5788 5793 5796 5800 5801 5801 5802 5800 5796 5795 5796 5796 5795 5794 5794
5654 5658 5661 5665 5669 5673 5677 5681 5684 5686 5688 5689 5688 5687 5683 5680 5687 5700 5707 5710 5711 5714 5719 5720 5722 5724 5726 5729 5732 5735 5736 5737 5740 5741 5742 5743 5745 5749 5753 5756 5758 5760 5763 5765 5764 5766 5768 5770 5775 5777 5777 5780 5781 5782 5783 5782 5782 5783 5784 5784 5784 5787 5786 5784 5785 5784 5784 5787 5788 5787 5783 5777 5779 5785 5785 5788 5793 5795 5795 5796 5795 5792 5790 5790 5792 5790 5789 5789
5647 5650 5654 5658 5662 5666 5670 5674 5677 5678 5679 5680 5680 5676 5673 5677 5689 5696 5700 5704 5707 5708 5711 5711 5712 5715 5719 5722 5725 5728 5729 5731 5734 5735 5736 5737 5740 5745 5749 5752 5754 5757 5759 5759 5760 5762 5762 5765 5772 5772 5771 5774 5775 5776 5776 5776 5776 5777 5779 5779 5780 5784 5783 5779 5779 5780 5780 5779 5779 5782 5779 5776 5779 5779 5779 5782 5785 5788 5789 5788 5789 5788 5786 5785 5786 5785 5785 5784
5640 5644 5647 5651 5656 5660 5663 5666 5670 5671 5670 5672 5670 5665 5668 5678 5687 5691 5696 5700 5699 5701 5705 5703 5703 5708 5712 5715 5719 5721 5723 5725 5727 5729 5730 5733 5735 5739 5743 5747 5750 5751 5753 5754 5755 5757 5756 5759 5764 5764 5765 5768 5768 5769 5770 5770 5770 5771 5772 5774 5776 5778 5777 5774 5773 5775 5775 5772 5773 5776 5774 5773 5775 5773 5774 5778 5780 5782 5783 5783 5783 5782 5782 5781 5779 5779 5779 5779
5632 5637 5641 5646 5650 5652 5655 5658 5661 5661 5661 5662 5660 5660 5667 5675 5681 5685 5690 5692 5692 5695 5698 5697 5697 5700 5704 5708 5711 5715 5716 5718 5720 5721 5725 5727 5728 5733 5739 5743 5745 5746 5749 5751 5749 5749 5750 5751 5755 5757 5758 5760 5762 5762 5762 5763 5764 5765 5767 5770 5771 5770 5770 5770 5768 5769 5770 5766 5767 5770 5769 5768 5768 5767 5770 5774 5775 5776 5777 5778 5778 5777 5777 5776 5774 5773 5773 5774
5625 5629 5634 5640 5643 5644 5647 5650 5651 5653 5653 5651 5650 5655 5662 5669 5675 5680 5682 5684 5685 5687 5690 5691 5691 5693 5696 5699 5703 5707 5707 5709 5711 5714 5718 5719 5721 5729 5735 5737 5739 5742 5745 5744 5741 5742 5743 5743 5746 5749 5750 5752 5754 5754 5755 5758 5758 5759 5761 5763 5764 5763 5764 5765 5763 5762 5763 5761 5760 5764 5764 5762 5762 5764 5767 5768 5769 5770 5771 5772 5772 5773 5773 5772 5770 5769 5768 5768
5618 5621 5628 5634 5636 5635 5638 5640 5641 5645 5643 5639 5642 5650 5657 5665 5671 5672 5673 5677 5679 5680 5683 5686 5687 5687 5689 5692 5696 5699 5699 5701 5705 5707 5710 5711 5716 5725 5730 5731 5733 5736 5737 5736 5733 5735 5737 5735 5737 5741 5743 5744 5745 5746 5750 5753 5753 5753 5755 5756 5757 5757 5758 5758 5757 5756 5757 5755 5754 5756 5758 5757 5758 5761 5763 5763 5764 5765 5766 5765 5766 5769 5769 5768 5767 5766 5764 5763
5609 5613 5621 5628 5627 5626 5629 5630 5630 5631 5629 5630 5638 5646 5653 5660 5663 5663 5667 5670 5670 5672 5676 5680 5681 5680 5682 5686 5689 5691 5693 5695 5698 5701 5703 5706 5711 5719 5724 5725 5727 5730 5730 5727 5725 5727 5728 5727 5730 5734 5735 5734 5737 5742 5746 5748 5747 5747 5748 5749 5750 5751 5750 5750 5750 5750 5750 5749 5749 5750 5750 5752 5757 5758 5758 5758 5759 5759 5759 5759 5760 5764 5766 5764 5763 5762 5760 5759
5600 5604 5614 5620 5618 5618 5620 5618 5619 5621 5622 5626 5633 5641 5647 5652 5655 5658 5661 5661 5661 5665 5669 5672 5673 5674 5677 5680 5681 5685 5687 5688 5691 5693 5696 5701 5707 5713 5718 5720 5720 5722 5721 5718 5718 5721 5721 5722 5724 5725 5726 5728 5733 5738 5739 5739 5739 5739 5740 5741 5744 5745 5744 5742 5741 5742 5743 5743 5745 5745 5744 5749 5755 5754 5753 5753 5751 5752 5752 5753 5755 5758 5760 5759 5758 5757 5756 5755
5591 5597 5608 5611 5608 5610 5609 5607 5611 5615 5615 5620 5631 5638 5640 5642 5647 5651 5653 5653 5654 5658 5661 5664 5667 5669 5672 5674 5677 5679 5680 5681 5684 5686 5689 5695 5701 5707 5712 5712 5710 5712 5712 5710 5713 5716 5715 5714 5714 5715 5719 5723 5726 5728 5728 5729 5730 5731 5731 5734 5737 5737 5736 5735 5733 5736 5738 5738 5740 5740 5739 5745 5751 5750 5748 5747 5744 5744 5746 5747 5748 5750 5752 5752 5751 5751 5751 5751
5584 5592 5600 5599 5598 5601 5598 5597 5603 5605 5608 5619 5629 5630 5628 5633 5639 5642 5644 5646 5649 5652 5656 5659 5663 5664 5667 5670 5671 5671 5673 5675 5677 5680 5685 5689 5694 5700 5703 5702 5702 5703 5703 5704 5707 5709 5706 5703 5704 5707 5710 5713 5715 5718 5720 5721 5722 5721 5723 5727 5729 5728 5729 5729 5729 5731 5731 5732 5737 5735 5734 5740 5745 5744 5744 5740 5738 5740 5741 5740 5741 5743 5744 5744 5743 5743 5744 5745
5578 5584 5588 5587 5589 5590 5586 5589 5596 5600 5606 5616 5619 5617 5619 5624 5629 5633 5637 5642 5646 5648 5650 5653 5657 5659 5661 5663 5664 5664 5667 5669 5670 5676 5680 5682 5687 5693 5694 5694 5695 5695 5696 5698 5700 5701 5698 5696 5699 5701 5701 5703 5705 5708 5711 5713 5714 5714 5718 5722 5722 5723 5724 5723 5724 5725 5723 5728 5733 5728 5727 5735 5738 5739 5738 5735 5733 5735 5735 5733 5734 5735 5735 5734 5735 5735 5736 5737
5569 5572 5576 5579 5580 5578 5577 5584 5592 5593 5599 5606 5606 5607 5612 5616 5620 5627 5633 5636 5639 5640 5642 5646 5650 5652 5653 5654 5656 5657 5660 5661 5665 5670 5673 5677 5682 5687 5687 5688 5687 5688 5691 5692 5692 5692 5690 5689 5691 5692 5690 5692 5696 5700 5705 5709 5709 5709 5713 5716 5716 5718 5717 5717 5719 5717 5716 5723 5724 5717 5721 5730 5732 5732 5732 5730 5730 5731 5730 5729 5729 5728 5725 5724 5727 5729 5729 5729
5558 5561 5567 5571 5571 5568 5571 5579 5583 5582 5588 5595 5596 5599 5604 5607 5614 5622 5625 5625 5628 5632 5636 5640 5643 5643 5643 5646 5649 5651 5654 5657 5659 5662 5666 5672 5678 5681 5681 5681 5681 5683 5686 5686 5685 5684 5681 5681 5683 5684 5682 5685 5691 5697 5700 5700 5700 5701 5705 5707 5707 5709 5709 5710 5709 5706 5710 5715 5712 5711 5719 5724 5726 5727 5726 5727 5726 5724 5724 5726 5724 5721 5718 5717 5720 5721 5720 5720
5547 5553 5561 5563 5562 5561 5564 5571 5573 5573 5581 5586 5586 5590 5596 5600 5607 5611 5611 5614 5620 5626 5630 5633 5634 5634 5636 5641 5644 5646 5651 5653 5652 5654 5660 5667 5672 5673 5673 5673 5674 5678 5679 5678 5677 5676 5673 5673 5676 5678 5677 5681 5688 5692 5691 5689 5690 5693 5696 5697 5698 5700 5700 5699 5697 5700 5707 5704 5700 5710 5717 5715 5719 5724 5722 5723 5722 5718 5719 5719 5716 5716 5716 5714 5714 5713 5712 5712
5539 5546 5553 5554 5552 5552 5557 5564 5566 5568 5574 5576 5576 5581 5586 5590 5595 5599 5601 5608 5614 5618 5619 5621 5625 5629 5633 5639 5640 5641 5645 5646 5644 5648 5655 5661 5664 5664 5665 5666 5669 5672 5672 5670 5670 5669 5666 5666 5671 5672 5672 5676 5683 5684 5682 5681 5682 5684 5686 5687 5690 5691 5690 5689 5691 5697 5700 5692 5693 5709 5711 5704 5712 5719 5717 5718 5717 5714 5713 5711 5710 5712 5711 5708 5707 5708 5708 5706
5532 5539 5544 5544 5542 5544 5551 5556 5558 5559 5564 5567 5567 5571 5576 5580 5586 5591 5596 5600 5603 5607 5609 5611 5618 5627 5631 5634 5632 5631 5635 5637 5638 5645 5652 5654 5655 5656 5657 5660 5662 5664 5664 5662 5663 5663 5660 5661 5666 5667 5665 5669 5676 5677 5674 5674 5674 5675 5677 5678 5681 5682 5682 5684 5686 5691 5691 5684 5688 5700 5698 5695 5706 5713 5712 5713 5711 5709 5708 5705 5706 5706 5703 5702 5702 5702 5702 5701
5525 5531 5535 5533 5531 5536 5542 5545 5547 5548 5553 5559 5559 5562 5569 5572 5577 5585 5588 5589 5592 5598 5601 5604 5614 5623 5625 5625 5623 5621 5627 5633 5635 5643 5648 5646 5646 5648 5649 5651 5653 5655 5655 5655 5656 5656 5655 5656 5660 5661 5657 5659 5669 5671 5667 5666 5666 5667 5668 5670 5672 5674 5675 5676 5679 5682 5682 5678 5683 5690 5687 5689 5701 5706 5705 5706 5704 5702 5701 5699 5699 5699 5697 5697 5696 5695 5696 5696
5515 5520 5523 5520 5519 5526 5532 5534 5537 5538 5543 5549 5551 5555 5561 5563 5570 5578 5579 5580 5584 5589 5592 5598 5608 5614 5614 5613 5611 5614 5625 5631 5632 5637 5639 5635 5635 5639 5639 5641 5644 5645 5645 5647 5647 5648 5649 5650 5654 5654 5648 5652 5664 5664 5657 5659 5659 5657 5659 5664 5668 5669 5669 5669 5672 5674 5675 5674 5677 5679 5676 5684 5696 5698 5697 5698 5695 5693 5693 5692 5691 5692 5692 5691 5690 5691 5691 5692
5505 5507 5510 5508 5509 5516 5521 5524 5527 5528 5532 5540 5546 5549 5553 5557 5565 5569 5567 5569 5575 5579 5584 5591 5598 5602 5601 5600 5604 5614 5624 5627 5625 5626 5626 5624 5626 5629 5629 5632 5636 5636 5637 5639 5639 5641 5644 5644 5647 5647 5642 5646 5656 5654 5650 5652 5647 5643 5654 5665 5667 5665 5663 5663 5666 5669 5670 5669 5668 5668 5671 5681 5689 5687 5686 5688 5685 5684 5685 5685 5684 5685 5685 5685 5686 5687 5686 5686